Location: Newark
(42.8481°N, 0.4872°E)
Time: 12:58:29
(UTC+00:00)

A-11 Canister half - Pass Details

Date: 03 November 2020
Orbit: 1525 x 1684 km, 47.3° (Epoch: 01 December)

Event Time Altitude Azimuth Distance (km) Brightness Sun altitude
Rises 10:01:05 0° 177° (S) 4,862 12.6 27.5°
Reaches altitude 10° 10:05:55 10° 158° (SSE) 3,850 12.9 27.9°
Maximum altitude 10:11:12 16° 124° (SE) 3,356 12.0 28.3°
Drops below altitude 10° 10:16:24 10° 91° (E) 3,790 11.5 28.7°
Sets 10:21:02 0° 72° (ENE) 4,748 11.6 29.0°
